When you browse on this site, cookies collect data to enhance your experience and personalize the content and advertising you see.
Visit our Privacy Policy to learn more. By continuing to use the site, you agree to this use of cookies and data.
  • en France
  • Liste des pays
  • À 7 jours
  • Température de l'eau
  • Carte satellitaire
  • Carte météo
  • Widgets météo
  • user-avatar
    Se connecter

    Météo par heure à Melbourne

    Ce jour, 25 Mai, Samedi

    Heure Température Précipitation Vent Pression Humidité
    00:00 +15°C° 0.2 mm 5 m/s 759 mmHg 72%
    01:00 +16°C° 0.2 mm 3 m/s 759 mmHg 75%
    02:00 +14°C° 0 mm 3 m/s 759 mmHg 78%
    03:00 +14°C° 0 mm 3 m/s 759 mmHg 80%
    04:00 +14°C° 0 mm 3 m/s 759 mmHg 84%
    05:00 +13°C° 0 mm 3 m/s 758 mmHg 83%
    06:00 +13°C° 0 mm 4 m/s 758 mmHg 82%
    07:00 +13°C° 0 mm 4 m/s 758 mmHg 82%
    08:00 +14°C° 0 mm 4 m/s 758 mmHg 76%
    09:00 +15°C° 0 mm 4 m/s 758 mmHg 70%
    10:00 +17°C° 0 mm 4 m/s 758 mmHg 63%
    11:00 +17°C° 0 mm 5 m/s 758 mmHg 59%
    12:00 +19°C° 0 mm 5 m/s 757 mmHg 54%
    13:00 +20°C° 0 mm 6 m/s 757 mmHg 49%
    14:00 +19°C° 0.1 mm 5 m/s 757 mmHg 53%
    15:00 +19°C° 0.1 mm 5 m/s 756 mmHg 57%
    16:00 +17°C° 0.1 mm 5 m/s 756 mmHg 61%
    17:00 +16°C° 1.3 mm 5 m/s 756 mmHg 66%
    18:00 +16°C° 1.3 mm 5 m/s 756 mmHg 72%
    19:00 +15°C° 1.3 mm 5 m/s 757 mmHg 78%
    20:00 +14°C° 0.6 mm 5 m/s 757 mmHg 77%
    21:00 +14°C° 0.6 mm 4 m/s 757 mmHg 77%
    22:00 +13°C° 0.6 mm 4 m/s 757 mmHg 77%
    23:00 +12°C° 0 mm 5 m/s 757 mmHg 77%

    Demain, 26 Mai, Dimanche

    Heure Température Précipitation Vent Pression Humidité
    00:00 +12°C° 0 mm 5 m/s 757 mmHg 76%
    01:00 +10°C° 0 mm 5 m/s 757 mmHg 76%
    02:00 +10°C° 0 mm 5 m/s 758 mmHg 76%
    03:00 +9°C° 0 mm 5 m/s 758 mmHg 76%
    04:00 +9°C° 0 mm 5 m/s 758 mmHg 77%
    05:00 +8°C° 0 mm 4 m/s 758 mmHg 77%
    06:00 +8°C° 0 mm 4 m/s 759 mmHg 77%
    07:00 +8°C° 0 mm 4 m/s 759 mmHg 77%
    08:00 +10°C° 0 mm 4 m/s 759 mmHg 72%
    09:00 +10°C° 0 mm 5 m/s 759 mmHg 67%
    10:00 +12°C° 0 mm 5 m/s 759 mmHg 62%
    11:00 +13°C° 0 mm 5 m/s 758 mmHg 58%
    12:00 +14°C° 0 mm 6 m/s 758 mmHg 54%
    13:00 +15°C° 0 mm 6 m/s 757 mmHg 49%
    14:00 +15°C° 0 mm 6 m/s 756 mmHg 52%
    15:00 +14°C° 0 mm 7 m/s 756 mmHg 54%
    16:00 +14°C° 0 mm 7 m/s 755 mmHg 56%
    17:00 +14°C° 0 mm 7 m/s 755 mmHg 58%
    18:00 +12°C° 0 mm 8 m/s 754 mmHg 60%
    19:00 +12°C° 0 mm 8 m/s 754 mmHg 62%
    20:00 +11°C° 2 mm 8 m/s 754 mmHg 69%
    21:00 +11°C° 2 mm 8 m/s 754 mmHg 76%
    22:00 +10°C° 2 mm 7 m/s 754 mmHg 83%
    23:00 +9°C° 0.9 mm 7 m/s 754 mmHg 79%

    Après-demain, 27 Mai, Lundi

    Heure Température Précipitation Vent Pression Humidité
    00:00 +9°C° 0.9 mm 7 m/s 754 mmHg 75%
    01:00 +8°C° 0.9 mm 7 m/s 754 mmHg 71%
    02:00 +8°C° 0 mm 7 m/s 754 mmHg 71%
    03:00 +6°C° 0 mm 7 m/s 754 mmHg 71%
    04:00 +6°C° 0 mm 7 m/s 754 mmHg 70%
    05:00 +6°C° 0.2 mm 8 m/s 754 mmHg 71%
    06:00 +6°C° 0.2 mm 8 m/s 754 mmHg 71%
    07:00 +6°C° 0.2 mm 8 m/s 754 mmHg 72%
    08:00 +7°C° 0.1 mm 9 m/s 755 mmHg 67%
    09:00 +8°C° 0.1 mm 9 m/s 755 mmHg 62%
    10:00 +8°C° 0.1 mm 9 m/s 756 mmHg 57%
    11:00 +10°C° 0.3 mm 9 m/s 756 mmHg 56%
    12:00 +10°C° 0.3 mm 9 m/s 756 mmHg 55%
    13:00 +11°C° 0.3 mm 9 m/s 756 mmHg 53%
    14:00 +11°C° 0.2 mm 8 m/s 757 mmHg 52%
    15:00 +11°C° 0.2 mm 7 m/s 757 mmHg 51%
    16:00 +10°C° 0.2 mm 6 m/s 757 mmHg 50%
    17:00 +10°C° 0 mm 6 m/s 758 mmHg 55%
    18:00 +9°C° 0 mm 5 m/s 758 mmHg 59%
    19:00 +8°C° 0 mm 5 m/s 759 mmHg 64%
    20:00 +8°C° 0 mm 5 m/s 759 mmHg 67%
    21:00 +8°C° 0 mm 5 m/s 759 mmHg 70%
    22:00 +8°C° 0 mm 5 m/s 760 mmHg 73%
    23:00 +8°C° 0 mm 5 m/s 759 mmHg 72%

    28 Mai, Mardi

    Heure Température Précipitation Vent Pression Humidité
    00:00 +8°C° 0 mm 5 m/s 759 mmHg 71%
    01:00 +8°C° 0 mm 5 m/s 759 mmHg 71%
    02:00 +8°C° 0 mm 5 m/s 758 mmHg 72%
    03:00 +9°C° 0 mm 5 m/s 758 mmHg 73%
    04:00 +9°C° 0 mm 5 m/s 758 mmHg 74%
    05:00 +9°C° 0 mm 5 m/s 757 mmHg 74%
    06:00 +9°C° 0 mm 5 m/s 757 mmHg 74%
    07:00 +9°C° 0 mm 5 m/s 757 mmHg 74%
    08:00 +10°C° 0 mm 5 m/s 757 mmHg 71%
    09:00 +11°C° 0 mm 6 m/s 757 mmHg 67%
    10:00 +13°C° 0 mm 6 m/s 757 mmHg 63%
    11:00 +13°C° 0.1 mm 6 m/s 756 mmHg 66%
    12:00 +13°C° 0.1 mm 6 m/s 755 mmHg 68%
    13:00 +11°C° 0.1 mm 6 m/s 755 mmHg 71%
    14:00 +13°C° 0.2 mm 6 m/s 754 mmHg 70%
    15:00 +13°C° 0.2 mm 6 m/s 754 mmHg 70%
    16:00 +13°C° 0.2 mm 6 m/s 753 mmHg 69%
    17:00 +13°C° 0.3 mm 6 m/s 753 mmHg 69%
    18:00 +11°C° 0.3 mm 6 m/s 752 mmHg 70%
    19:00 +11°C° 0.3 mm 7 m/s 752 mmHg 70%
    20:00 +11°C° 0.6 mm 7 m/s 752 mmHg 70%
    21:00 +11°C° 0.6 mm 7 m/s 752 mmHg 71%
    22:00 +10°C° 0.6 mm 8 m/s 751 mmHg 71%
    23:00 +10°C° 0.5 mm 8 m/s 751 mmHg 71%

    29 Mai, Mercredi

    Heure Température Précipitation Vent Pression Humidité
    00:00 +9°C° 0.5 mm 8 m/s 751 mmHg 71%
    01:00 +7°C° 0.5 mm 8 m/s 750 mmHg 72%
    02:00 +7°C° 0.3 mm 8 m/s 750 mmHg 72%
    03:00 +7°C° 0.3 mm 8 m/s 750 mmHg 71%
    04:00 +6°C° 0.3 mm 8 m/s 750 mmHg 71%
    05:00 +6°C° 0.2 mm 8 m/s 750 mmHg 71%
    06:00 +6°C° 0.2 mm 8 m/s 751 mmHg 70%
    07:00 +6°C° 0.2 mm 7 m/s 751 mmHg 69%
    08:00 +6°C° 0.2 mm 7 m/s 751 mmHg 67%
    09:00 +7°C° 0.2 mm 8 m/s 752 mmHg 64%
    10:00 +7°C° 0.2 mm 8 m/s 752 mmHg 62%
    11:00 +9°C° 0.3 mm 8 m/s 752 mmHg 59%
    12:00 +9°C° 0.3 mm 8 m/s 752 mmHg 57%
    13:00 +9°C° 0.3 mm 8 m/s 753 mmHg 55%
    14:00 +9°C° 0.4 mm 7 m/s 753 mmHg 56%
    15:00 +9°C° 0.4 mm 7 m/s 753 mmHg 57%
    16:00 +8°C° 0.4 mm 7 m/s 754 mmHg 58%
    17:00 +8°C° 0.4 mm 6 m/s 754 mmHg 62%
    18:00 +7°C° 0.4 mm 6 m/s 754 mmHg 66%
    19:00 +6°C° 0.4 mm 5 m/s 754 mmHg 70%
    20:00 +7°C° 1.8 mm 5 m/s 755 mmHg 74%
    21:00 +7°C° 1.8 mm 6 m/s 755 mmHg 78%
    22:00 +7°C° 1.8 mm 6 m/s 756 mmHg 82%
    23:00 +6°C° 0.3 mm 5 m/s 757 mmHg 81%

    30 Mai, Jeudi

    Heure Température Précipitation Vent Pression Humidité
    00:00 +6°C° 0.3 mm 4 m/s 758 mmHg 79%
    01:00 +7°C° 0.3 mm 3 m/s 759 mmHg 78%
    02:00 +6°C° 0.5 mm 4 m/s 759 mmHg 78%
    03:00 +6°C° 0.5 mm 4 m/s 760 mmHg 78%
    04:00 +6°C° 0.5 mm 4 m/s 761 mmHg 79%
    05:00 +6°C° 0.7 mm 4 m/s 762 mmHg 79%
    06:00 +7°C° 0.7 mm 4 m/s 763 mmHg 79%
    07:00 +7°C° 0.7 mm 5 m/s 764 mmHg 79%
    08:00 +8°C° 0.4 mm 5 m/s 765 mmHg 76%
    09:00 +9°C° 0.4 mm 5 m/s 765 mmHg 73%
    10:00 +9°C° 0.4 mm 5 m/s 766 mmHg 69%
    11:00 +10°C° 0.3 mm 6 m/s 766 mmHg 67%
    12:00 +10°C° 0.3 mm 6 m/s 767 mmHg 65%
    13:00 +11°C° 0.3 mm 6 m/s 767 mmHg 63%
    14:00 +11°C° 0.1 mm 6 m/s 767 mmHg 62%
    15:00 +12°C° 0.1 mm 5 m/s 768 mmHg 62%
    16:00 +10°C° 0.1 mm 5 m/s 768 mmHg 62%
    17:00 +10°C° 0.1 mm 5 m/s 769 mmHg 64%
    18:00 +10°C° 0.1 mm 4 m/s 769 mmHg 67%
    19:00 +10°C° 0.1 mm 4 m/s 770 mmHg 70%
    20:00 +10°C° 0.1 mm 4 m/s 771 mmHg 72%
    21:00 +10°C° 0.1 mm 4 m/s 771 mmHg 73%
    22:00 +10°C° 0.1 mm 4 m/s 772 mmHg 75%
    23:00 +8°C° 0.1 mm 4 m/s 772 mmHg 76%
    Voir plus